This is the latest recevied weather packets stored in our database for station/object OE6ACM-14. If no packets are shown the sender has not sent any weather packets the latest 10 day(s).
| Time | Temp. | Humidity | Pressure | Rain* | Wind** | Luminosity | Snow |
|---|---|---|---|---|---|---|---|
| 1777832796 | 15.56° C | 45% | 927 hPa | - | - | - | - |
| 1777832496 | 16.11° C | 44% | 926.8 hPa | - | - | - | - |
| 1777832196 | 16.67° C | 42% | 926.7 hPa | - | - | - | - |
| 1777831896 | 16.67° C | 42% | 926.7 hPa | - | - | - | - |
| 1777831596 | 17.22° C | 41% | 926.6 hPa | - | - | - | - |
| 1777831296 | 17.78° C | 39% | 926.6 hPa | - | - | - | - |
| 1777830996 | 17.78° C | 38% | 926.5 hPa | - | - | - | - |
| 1777830696 | 18.33° C | 38% | 926.5 hPa | - | - | - | - |
| 1777830396 | 18.33° C | 38% | 926.4 hPa | - | - | - | - |
| 1777830096 | 18.89° C | 38% | 926.4 hPa | - | - | - | - |
| 1777829796 | 18.89° C | 38% | 926.4 hPa | - | - | - | - |
| 1777829496 | 18.89° C | 37% | 926.3 hPa | - | - | - | - |
| 1777829196 | 19.44° C | 37% | 926.3 hPa | - | - | - | - |
| 1777828896 | 20° C | 35% | 926.2 hPa | - | - | - | - |
| 1777828596 | 20.56° C | 34% | 926.1 hPa | - | - | - | - |
| 1777828296 | 21.67° C | 33% | 926.1 hPa | - | - | - | - |
| 1777827996 | 22.78° C | 31% | 926 hPa | - | - | - | - |
| 1777827696 | 23.33° C | 32% | 925.9 hPa | - | - | - | - |
| 1777827396 | 23.33° C | 32% | 925.9 hPa | - | - | - | - |
| 1777827096 | 23.33° C | 31% | 925.9 hPa | - | - | - | - |
| 1777826796 | 23.33° C | 32% | 925.8 hPa | - | - | - | - |
| 1777826496 | 23.89° C | 31% | 925.8 hPa | - | - | - | - |
| 1777826196 | 23.89° C | 31% | 925.9 hPa | - | - | - | - |
| 1777825896 | 23.89° C | 29% | 925.7 hPa | - | - | - | - |
| 1777825596 | 24.44° C | 29% | 925.8 hPa | - | - | - | - |
* Rain since midnight (hover to see other rain measurements)
** Current wind speed in m/s (hover to see current wind gust speed)